"TOA5","AWS1","CR1000","7964","CR1000.Std.14","CPU:AWS1_114.CR1","64363","TBL110"
"TIMESTAMP","RECORD","Wind_spd_WVc(1)","Wind_spd_WVc(2)","Air_Temp_Avg","Humidity_Avg","SW_upper_Wm2_Avg","Rain_Tot","Press_Avg","Issui_Tot","Depth_cm","SR50A_Raw","Quality","Ground_Temp_Avg(1)","Ground_Temp_Avg(2)","SW_lower_Wm2_Avg","Albedo_Avg","SWC_per(1)","SWC_per(2)","Period(1)","Period(2)"
"TS","RN","","","","","","","","","","","","","","","","","","",""
"","","WVc","WVc","Avg","Avg","Avg","Tot","Avg","Tot","Smp","Smp","Smp","Avg","Avg","Avg","Avg","Smp","Smp","Smp","Smp"
"2017-04-08 00:00:00",282733,0.199,174.4,8.06,92.5,0,0,866.1871,0,79.9,2.351,184,0.588,1.142,0.003790769,0,53.5,62.12,34.15,36.16
"2017-04-08 00:10:00",282734,0.304,189.4,7.216,100,0,0,866.1428,0,79.81,2.349,187,0.587,1.153,0.01137229,0,53.5,62.12,34.15,36.16
"2017-04-08 00:20:00",282735,0.206,180.4,7.088,100,0.05111001,0,866.1428,0,80,2.349,194,0.586,1.144,0.04169819,0.048,53.5,62.12,34.15,36.16
"2017-04-08 00:30:00",282736,0.171,192.9,7.143,100,0.6919559,0,866.1428,0,79.82,2.351,190,0.589,1.152,0,0,53.56,62.12,34.17,36.16
"2017-04-08 00:40:00",282737,0.446,196.4,6.989,100,0.7666631,0,866.1492,0,79.72,2.352,193,0.591,1.153,0,0,53.5,62.06,34.15,36.15
"2017-04-08 00:50:00",282738,0.523,186.9,6.73,100,0.6958967,0,866.1913,0,79.72,2.354,190,0.592,1.126,0,0,53.5,62.06,34.15,36.15
"2017-04-08 01:00:00",282739,0.414,195.7,7.15,100,1.203077,0,866.1473,0,79.61,2.354,179,0.592,1.119,0.2274501,0.147,53.45,62.06,34.14,36.15
"2017-04-08 01:10:00",282740,0.172,192.5,6.971,100,0.82171,0,866.0587,0,79.49,2.353,195,0.592,1.115,0.04549004,0.032,53.5,62.06,34.15,36.15
"2017-04-08 01:20:00",282741,0.229,188.3,7.309,100,1.01436,0,865.8907,0,80.1,2.347,195,0.592,1.126,0.1592151,0.112,53.5,62.06,34.15,36.15
"2017-04-08 01:30:00",282742,0.157,184.1,7.556,97.9,1.065471,0,865.8929,0,79.53,2.353,182,0.592,1.126,0.2577769,0.117,53.45,62.06,34.14,36.15
"2017-04-08 01:40:00",282743,0.375,178.9,7.145,99.9,0.6958979,0,865.8839,0,79.15,2.36,195,0.592,1.129,0,0,53.45,62,34.14,36.13
"2017-04-08 01:50:00",282744,0.465,181,7.025,100,0.5229064,0,865.6157,0,79.15,2.358,182,0.592,1.15,0.007581673,0.005,53.45,62,34.14,36.13
"2017-04-08 02:00:00",282745,0.447,183.7,7.43,100,0.9553853,0,865.4059,0,79.09,2.355,186,0.592,1.138,0.1554243,0.118,53.45,62,34.14,36.13
"2017-04-08 02:10:00",282746,0.284,188.4,7.892,99.5,0.8610262,0,865.3789,0,80.2,2.342,184,0.592,1.14,0.05686254,0.04,53.45,62,34.14,36.13
"2017-04-08 02:20:00",282747,0.135,209.9,8.84,99.7,1.875386,0,865.2289,0,79.24,2.351,186,0.592,1.147,0.5231354,0.215,53.45,62,34.14,36.13
"2017-04-08 02:30:00",282748,0.4,197.4,8.29,100,0.6015389,0,865.1319,0,79.48,2.35,194,0.592,1.132,0,0,53.45,62,34.14,36.13
"2017-04-08 02:40:00",282749,0.321,193.6,7.979,100,0.4403382,0,865.1277,0,79.64,2.351,194,0.59,1.136,0,0,53.45,62,34.14,36.13
"2017-04-08 02:50:00",282750,0.167,192.9,7.549,100,0.2437591,0,865.0203,0,79.83,2.348,192,0.59,1.139,0,0,53.45,61.94,34.14,36.12
"2017-04-08 03:00:00",282751,0.209,172.4,7.95,100,1.24239,0,864.8813,0,79.74,2.345,193,0.591,1.131,0.1819596,0.079,53.45,61.94,34.14,36.12
"2017-04-08 03:10:00",282752,0.236,274.9,8.34,100,1.163751,0,864.8792,0,79.31,2.355,192,0.589,1.141,0.1857501,0.071,53.45,61.94,34.14,36.12
"2017-04-08 03:20:00",282753,0.149,182.6,7.814,100,0.6133138,0,864.8835,0,79.62,2.346,170,0.586,1.13,0.09097697,0.042,53.39,61.94,34.13,36.12
"2017-04-08 03:30:00",282754,0.177,281,8.79,100,1.592244,0,864.8792,0,79.51,2.348,170,0.582,1.139,0.3828589,0.143,53.39,61.94,34.13,36.12
"2017-04-08 03:40:00",282755,0.222,182.7,8.47,100,0.8885249,0,864.8434,0,78.83,2.359,193,0.586,1.143,0.04927939,0.025,53.39,61.88,34.13,36.11
"2017-04-08 03:50:00",282756,0.402,125.1,8.07,100,0.7941667,0,864.8666,0.5,79.69,2.344,193,0.586,1.144,0.3032581,0.137,53.39,61.88,34.13,36.11
"2017-04-08 04:00:00",282757,0.243,100.1,9.15,100,1.431058,0,864.8792,0,79.24,2.346,181,0.582,1.149,0.2198612,0.096,53.39,61.88,34.13,36.11
"2017-04-08 04:10:00",282758,0.235,132,10.05,100,1.56864,0,864.8961,0,78.78,2.349,195,0.58,1.135,0.3828543,0.167,53.39,61.88,34.13,36.11
"2017-04-08 04:20:00",282759,0.107,147.5,9.84,100,0.6644107,0,864.8813,0,77.27,2.365,179,0.58,1.128,0.01137191,0.006,53.33,61.88,34.11,36.11
"2017-04-08 04:30:00",282760,0.356,107.1,9.82,100,0.8452292,0,864.9235,0,78.47,2.354,174,0.571,1.105,0.09476367,0.075,53.39,61.88,34.13,36.11
"2017-04-08 04:40:00",282761,0.273,86.2,9.77,100,0.7704748,0,865.0814,0,78.27,2.354,180,0.524,1.084,0.007580661,0.008,53.39,61.88,34.13,36.11
"2017-04-08 04:50:00",282762,0.073,81.6,9.65,100,0.4481096,0,865.1319,0,78.66,2.353,177,0.496,1.056,0,0,53.39,61.82,34.13,36.09
"2017-04-08 05:00:00",282763,0.191,111.2,9.27,100,0.4127034,0,865.134,0,78.74,2.353,180,0.5,1.048,0,0,53.39,61.82,34.13,36.09
"2017-04-08 05:10:00",282764,0.372,137.4,8.71,100,0.2711973,0,865.1404,0,78.81,2.353,174,0.493,1.043,0,0,53.33,61.82,34.11,36.09
"2017-04-08 05:20:00",282765,0.616,130.3,9.67,100,1.002233,0,865.0604,0,78.23,2.354,182,0.492,1.036,0.458539,0.39,53.33,61.88,34.11,36.11
"2017-04-08 05:30:00",282766,0.723,144.1,9.74,100,1.183019,0,865.1235,0,78.45,2.353,183,0.476,1.024,0.1288449,0.07,53.39,61.88,34.13,36.11
"2017-04-08 05:40:00",282767,0.798,141.5,9.85,100,3.038113,0,865.0456,0,78.83,2.35,180,0.494,1.023,0.4433769,0.129,53.33,61.82,34.11,36.09
"2017-04-08 05:50:00",282768,0.953,140.9,10.49,100,8.516932,0,865.1298,0,78.45,2.349,185,0.495,1.022,2.982372,0.343,53.39,61.82,34.13,36.09
"2017-04-08 06:00:00",282769,0.903,149.3,10.84,100,13.59486,0,865.1319,0,77.76,2.357,184,0.498,1.022,4.448925,0.329,53.39,61.82,34.13,36.09
"2017-04-08 06:10:00",282770,0.627,130.3,10.69,100,21.31787,0,865.1361,0,77.72,2.358,184,0.519,1.022,7.029605,0.329,53.33,61.82,34.11,36.09
"2017-04-08 06:20:00",282771,0.934,147.1,10.69,100,27.79499,0,865.1993,0,78.21,2.351,179,0.53,1.022,9.72397,0.349,53.33,61.82,34.11,36.09
"2017-04-08 06:30:00",282772,0.694,143.5,10.81,100,26.50979,0,865.3131,0,77.23,2.364,174,0.563,1.022,9.163118,0.344,53.33,61.82,34.11,36.09
"2017-04-08 06:40:00",282773,0.402,134.2,10.11,100,33.44281,0,865.3763,0,77.82,2.357,182,0.548,1.022,11.49748,0.341,53.33,61.82,34.11,36.09
"2017-04-08 06:50:00",282774,0.282,140.5,10.23,100,30.00381,0,865.3848,0,78,2.357,178,0.541,1.022,10.50083,0.348,53.33,61.82,34.11,36.09
"2017-04-08 07:00:00",282775,0.356,101.1,10.08,100,37.4124,0,865.3848,0,78.18,2.356,174,0.521,1.022,13.42257,0.358,53.33,61.82,34.11,36.09
"2017-04-08 07:10:00",282776,0.446,87.6,10.22,100,42.86764,0,865.3848,0,77.85,2.358,174,0.533,1.022,15.81377,0.369,53.28,61.82,34.1,36.09
"2017-04-08 07:20:00",282777,0.274,122,10.15,100,44.09389,0,865.3848,0,77.41,2.363,173,0.548,1.022,15.95019,0.353,53.33,61.76,34.11,36.08
"2017-04-08 07:30:00",282778,0.612,141.7,9.01,100,25.5901,0,865.4563,0,78.13,2.361,178,0.55,1.022,8.431737,0.329,53.33,61.76,34.11,36.08
"2017-04-08 07:40:00",282779,0.533,132.3,9.22,100,61.72123,0,865.4058,0,77.45,2.367,195,0.53,1.022,23.82108,0.385,53.33,61.76,34.11,36.08
"2017-04-08 07:50:00",282780,0.569,143.7,9.8,100,60.5893,0,865.3848,0,77.54,2.361,203,0.548,1.022,23.30949,0.385,53.33,61.76,34.11,36.08
"2017-04-08 08:00:00",282781,0.432,126,10.3,100,66.30001,0,865.3848,0,77.63,2.359,217,0.563,1.022,25.96596,0.391,53.33,61.82,34.11,36.09
"2017-04-08 08:10:00",282782,0.435,135.7,10.15,100,100.2538,0,865.351,0,77.09,2.366,181,0.575,1.022,38.00913,0.379,53.33,61.82,34.11,36.09
"2017-04-08 08:20:00",282783,0.602,131.3,10.22,100,63.03001,0,865.3763,0,77.54,2.361,186,0.583,1.022,24.6813,0.391,53.33,61.82,34.11,36.09
"2017-04-08 08:30:00",282784,0.568,125.6,10.19,100,72.68673,0,865.3848,0,77.26,2.365,184,0.587,1.022,28.69064,0.394,53.33,61.82,34.11,36.09
"2017-04-08 08:40:00",282785,0.598,136.6,10.6,100,124.4604,0,865.1846,0,77.07,2.364,192,0.59,1.022,48.83207,0.392,53.33,61.82,34.11,36.09
"2017-04-08 08:50:00",282786,0.495,124.4,10.59,100,67.08607,0,865.3257,0,76.51,2.368,184,0.589,1.022,26.54576,0.395,53.33,61.76,34.11,36.08
"2017-04-08 09:00:00",282787,0.399,123.2,10.35,100,80.10317,0,865.3784,0,76.24,2.373,184,0.588,1.022,31.59722,0.394,53.39,61.82,34.13,36.09
"2017-04-08 09:10:00",282788,0.169,147.5,9.87,100,130.7017,0,865.2309,0,75.7,2.38,196,0.59,1.022,51.62876,0.396,53.33,61.82,34.11,36.09
"2017-04-08 09:20:00",282789,0.321,138.5,9.94,100,202.3783,0,865.1909,0.5,77.21,2.363,184,0.582,1.022,78.56863,0.388,53.33,61.82,34.11,36.09
"2017-04-08 09:30:00",282790,0.557,135.5,10.25,100,189.4005,0,865.1446,0,76.68,2.37,183,0.558,1.022,72.14535,0.38,53.33,61.82,34.11,36.09
"2017-04-08 09:40:00",282791,0.342,123.1,10.8,100,199.4424,0,865.113,0,76.2,2.372,181,0.556,1.021,78.17831,0.392,53.33,61.82,34.11,36.09
"2017-04-08 09:50:00",282792,0.914,137.4,11.25,100,261.592,0,865.073,0,76.49,2.365,188,0.549,0.985,102.6929,0.392,53.39,61.88,34.13,36.11
"2017-04-08 10:00:00",282793,1.04,127,11.67,100,253.1925,0,865.1319,0,76.55,2.365,188,0.547,0.99,99.90354,0.395,53.39,61.88,34.13,36.11
"2017-04-08 10:10:00",282794,1.119,136.7,11.7,100,254.9779,0,865.0004,0,76.52,2.364,188,0.541,0.974,101.4849,0.398,53.45,61.82,34.14,36.09
"2017-04-08 10:20:00",282795,0.697,152.6,11.77,100,241.0002,0,864.8419,0,77.2,2.358,190,0.519,0.942,94.36669,0.391,53.39,61.88,34.13,36.11
"2017-04-08 10:30:00",282796,0.268,99.8,11.9,100,197.7841,0,864.8168,0,76.49,2.364,186,0.503,0.948,78.37284,0.396,53.45,61.88,34.14,36.11
"2017-04-08 10:40:00",282797,1.011,128,11.83,100,278.1727,0,864.7965,0,77.01,2.36,187,0.469,0.929,110.3587,0.396,53.45,61.88,34.14,36.11
"2017-04-08 10:50:00",282798,1.113,135.9,11.79,100,270.4725,0,864.786,0,76.54,2.365,192,0.438,0.935,107.341,0.397,53.45,61.94,34.14,36.12
"2017-04-08 11:00:00",282799,0.729,113.9,11.21,100,165.45,0,864.7402,0,76.63,2.366,187,0.459,0.909,68.14771,0.411,53.45,61.94,34.14,36.12
"2017-04-08 11:10:00",282800,0.781,130.8,11.15,100,185.3449,0,864.5637,0,76.68,2.366,193,0.462,0.901,75.15165,0.405,53.5,61.94,34.15,36.12
"2017-04-08 11:20:00",282801,1.043,128.7,11.34,100,284.0749,0,864.3847,0,76.79,2.363,178,0.459,0.9,116.182,0.409,53.5,62,34.15,36.13
"2017-04-08 11:30:00",282802,0.811,143.2,11.35,100,201.4332,0,864.3325,0,76.61,2.364,178,0.458,0.915,81.76186,0.405,53.56,62,34.17,36.13
"2017-04-08 11:40:00",282803,0.861,130.6,11.55,100,277.8315,0,864.2369,0,76.34,2.367,189,0.46,0.887,113.9014,0.411,53.56,62.06,34.17,36.15
"2017-04-08 11:50:00",282804,0.625,138.6,11.39,100,222.1937,0,864.0471,0,76.11,2.37,185,0.457,0.887,90.37633,0.406,53.56,62.06,34.17,36.15
"2017-04-08 12:00:00",282805,0.504,129.3,11.21,100,157.4997,0,864.0092,0,76.85,2.362,187,0.458,0.875,64.3321,0.407,53.56,62.12,34.17,36.16
"2017-04-08 12:10:00",282806,0.533,342.3,11.41,100,69.69165,0,864.0049,0,76.14,2.373,190,0.46,0.895,29.11272,0.417,53.61,62.12,34.18,36.16
"2017-04-08 12:20:00",282807,0.531,6.803,11.24,100,109.2837,0,863.8155,0,76.17,2.369,176,0.46,0.892,46.45155,0.424,53.61,62.18,34.18,36.17
"2017-04-08 12:30:00",282808,0.533,101.3,11.42,100,130.496,0,863.7776,0.5,76.09,2.372,194,0.46,0.893,55.22893,0.423,53.61,62.18,34.18,36.17
"2017-04-08 12:40:00",282809,0.392,152.2,11.1,100,134.5664,0,863.6218,0,74.89,2.382,198,0.46,0.897,55.93733,0.415,53.67,62.24,34.19,36.19
"2017-04-08 12:50:00",282810,0.826,134.4,11.29,100,135.4779,0,863.
"2017-04-08 12:50:00",282810,0.826,134.4,11.29,100,135.4779,0,863.5355,1,75.12,2.379,200,0.463,0.899,57.9148,0.427,53.73,62.3,34.21,36.2
"2017-04-08 13:00:00",282811,1.041,107.1,11.31,100,116.4069,0,863.3615,0.5,75.62,2.375,193,0.461,0.899,49.21321,0.423,53.73,62.36,34.21,36.21
"2017-04-08 13:10:00",282812,0.594,147.7,11.22,100,129.3941,0,863.2697,0,75.3,2.378,180,0.479,0.938,53.8525,0.415,53.78,62.42,34.22,36.23
"2017-04-08 13:20:00",282813,0.586,127.2,11.35,100,109.9479,0,863.1392,0,75.35,2.379,190,0.491,0.951,45.97383,0.418,53.78,62.48,34.22,36.24
"2017-04-08 13:30:00",282814,0.58,141.4,11.27,100,133.4892,0,863.0316,0,75.13,2.38,180,0.497,0.963,54.93584,0.412,53.84,62.54,34.23,36.25
"2017-04-08 13:40:00",282815,0.791,124.2,11.5,100,134.2153,0,862.916,0,74.69,2.382,193,0.509,0.976,55.08271,0.41,53.84,62.66,34.23,36.28
"2017-04-08 13:50:00",282816,0.355,150.8,11.26,100,88.38527,0,862.8104,0,73.6,2.394,186,0.528,0.991,35.96975,0.406,53.9,62.78,34.25,36.31
"2017-04-08 14:00:00",282817,0.415,130.9,11.49,100,93.75713,0,862.7845,0.5,73.8,2.392,188,0.521,0.99,39.00851,0.415,53.95,62.84,34.26,36.32
"2017-04-08 14:10:00",282818,0.268,155.6,11.57,100,99.39871,0,862.5848,0.5,74.06,2.39,178,0.519,0.996,40.5213,0.406,53.95,62.96,34.26,36.35
"2017-04-08 14:20:00",282819,0.282,52.39,11.39,100,97.87568,0,862.5549,0,74.33,2.386,178,0.526,1.001,38.96465,0.397,53.95,63.08,34.26,36.38
"2017-04-08 14:30:00",282820,0.107,37.57,11.6,100,76.10579,0,862.3532,0,74.31,2.386,190,0.524,1.008,30.38668,0.397,54.01,63.2,34.27,36.4
"2017-04-08 14:40:00",282821,0.241,183,11.44,100,108.7578,0,862.2567,0,74.28,2.388,192,0.528,1.01,43.41479,0.398,54.01,63.26,34.27,36.42
"2017-04-08 14:50:00",282822,0.03,24.34,11.82,100,98.33784,0,862.0797,0.5,74.42,2.383,197,0.524,1.007,39.39757,0.4,54.12,63.39,34.3,36.44
"2017-04-08 15:00:00",282823,0.083,23.26,11.99,100,95.32066,0,862.0458,0,74.35,2.385,195,0.501,0.999,38.07018,0.399,54.12,63.57,34.3,36.49
"2017-04-08 15:10:00",282824,0.006,88,11.74,100,64.37742,0,861.9559,0.5,73.95,2.391,173,0.527,1.004,24.60375,0.382,54.12,63.63,34.3,36.5
"2017-04-08 15:20:00",282825,0,0,11.24,100,64.04121,0,861.8767,0.5,73.6,2.395,175,0.489,1.011,24.59306,0.384,54.12,63.75,34.3,36.53
"2017-04-08 15:30:00",282826,0,0,11.23,100,58.94253,0,861.8507,1,73.43,2.397,190,0.497,1.005,22.78502,0.386,54.18,63.93,34.32,36.57
"2017-04-08 15:40:00",282827,0.295,24.81,10.77,100,93.66304,0,861.822,0.5,72.77,2.405,190,0.508,1.002,37.41118,0.399,54.18,64.05,34.32,36.59
"2017-04-08 15:50:00",282828,0.327,21.01,10.95,100,64.08591,0,861.822,0.5,73.16,2.401,201,0.484,1.001,24.6338,0.38,54.24,64.18,34.33,36.62
"2017-04-08 16:00:00",282829,0.269,9.48,10.74,100,54.76406,0,861.8229,0,73.18,2.403,197,0.481,1.001,21.06435,0.383,54.29,64.36,34.34,36.66
"2017-04-08 16:10:00",282830,0.339,15.97,10.6,100,46.81012,0,861.8322,0,72.57,2.408,185,0.474,1.003,17.69584,0.377,54.35,64.6,34.36,36.72
"2017-04-08 16:20:00",282831,0.313,31.14,10.92,100,31.95978,0,861.8459,0.5,72.62,2.406,187,0.483,1.012,12.00099,0.375,54.35,65.16,34.36,36.84
"2017-04-08 16:30:00",282832,0.337,31.46,10.75,100,24.79531,0,862.0089,0,72.86,2.405,178,0.483,1.012,8.560282,0.342,54.41,65.71,34.37,36.96
"2017-04-08 16:40:00",282833,0.351,356,10.37,100,15.41815,0,862.0906,0,72.52,2.409,191,0.467,1.015,5.00966,0.325,54.46,65.96,34.38,37.01
"2017-04-08 16:50:00",282834,0.329,20.63,10.66,100,19.00668,0,862.0967,0,72.46,2.409,188,0.456,1.01,6.567214,0.343,54.46,66.26,34.38,37.08
"2017-04-08 17:00:00",282835,0.087,43.14,10.76,100,12.25066,0,862.0984,0.5,72.71,2.407,187,0.451,1.012,3.759214,0.307,54.46,66.45,34.38,37.12
"2017-04-08 17:10:00",282836,0.045,32.33,10.5,100,10.76504,0,862.0988,0,72.5,2.409,193,0.458,1.015,2.982367,0.274,54.46,66.51,34.38,37.14
"2017-04-08 17:20:00",282837,0.116,63.6,10.57,100,21.68337,0,862.0778,0,72.59,2.408,196,0.462,0.996,7.328972,0.33,54.52,66.64,34.4,37.16
"2017-04-08 17:30:00",282838,0.022,63.07,10.45,100,20.74796,0,862.0947,0,72.49,2.41,181,0.462,0.985,6.590012,0.316,54.52,66.64,34.4,37.16
"2017-04-08 17:40:00",282839,0.113,358.3,10.36,100,25.51933,0,862.1895,0,72.37,2.411,188,0.462,0.99,8.272569,0.323,54.46,66.7,34.38,37.18
"2017-04-08 17:50:00",282840,0.135,134.3,10.15,100,19.69858,0,862.162,0,73.19,2.405,192,0.462,0.984,5.722207,0.29,54.52,66.7,34.4,37.18
"2017-04-08 18:00:00",282841,0.471,85.5,10.47,100,11.33887,0,862.1283,0,72.48,2.409,170,0.462,0.98,3.247637,0.286,54.52,66.64,34.4,37.16
"2017-04-08 18:10:00",282842,0.238,46.39,10.5,100,13.35117,0,862.0988,0.5,72.72,2.408,193,0.462,0.981,3.437114,0.255,54.52,66.64,34.4,37.16
"2017-04-08 18:20:00",282843,0.551,90.1,10.1,100,5.290162,0,862.0967,0,72.58,2.411,189,0.461,0.977,0.8640153,0.131,54.46,66.57,34.38,37.15
"2017-04-08 18:30:00",282844,0.632,141.5,9.97,100,0.789987,0,862.0988,0,72.32,2.413,195,0.462,0.978,0.09094898,0.059,54.46,66.45,34.38,37.12
"2017-04-08 18:40:00",282845,0.566,127.3,10.23,100,0.180793,0,862.0988,0,72.23,2.413,179,0.462,0.963,0.01136862,0.021,54.46,66.39,34.38,37.11
"2017-04-08 18:50:00",282846,0.344,87.3,9.65,100,0,0,862.2421,0,72.42,2.414,185,0.464,0.935,0,0,54.46,66.33,34.38,37.1
"2017-04-08 19:00:00",282847,0.374,110.5,9.81,100,0,0,862.28,0,72.34,2.415,188,0.468,0.925,0.05305357,0,54.41,66.26,34.37,37.08
"2017-04-08 19:10:00",282848,0.478,137.4,9.02,100,0,0,862.1557,0,72.5,2.417,171,0.487,0.91,0,0,54.46,66.2,34.38,37.07
"2017-04-08 19:20:00",282849,0.677,144.5,9.09,100,0,0,862.0988,0,73.02,2.41,193,0.503,0.904,0.1250549,0,54.41,66.14,34.37,37.06
"2017-04-08 19:30:00",282850,0.614,152.5,8.77,100,0,0,862.2253,0,72.37,2.419,170,0.504,0.914,0.003789541,0,54.41,66.02,34.37,37.03
"2017-04-08 19:40:00",282851,0.216,179.2,8.76,100,0,0,862.3516,0,72.78,2.412,192,0.504,0.934,0.3675855,0,54.35,65.96,34.36,37.01
"2017-04-08 19:50:00",282852,0.106,168.9,9,100,0,0,862.3516,0,72.81,2.413,191,0.504,0.936,0.6707488,0,54.41,65.83,34.37,36.99
"2017-04-08 20:00:00",282853,0.289,169.8,7.761,100,0,0,862.5201,0,72.7,2.421,192,0.504,0.936,0.0833699,0,54.35,65.65,34.36,36.95
"2017-04-08 20:10:00",282854,0.232,159,7.082,100,0,0,862.6044,0,72.42,2.426,191,0.504,0.936,0,0,54.35,65.52,34.36,36.92
"2017-04-08 20:20:00",282855,0.201,177.2,7.412,100,0,0,862.6044,0,72.41,2.424,191,0.504,0.936,0.8374885,0,54.35,65.46,34.36,36.91
"2017-04-08 20:30:00",282856,0.569,179.3,7.036,100,0,0,862.4085,0,72.7,2.421,190,0.504,0.939,0.2576888,0,54.35,65.4,34.36,36.89
"2017-04-08 20:40:00",282857,0.286,196.5,8.09,100,0,0,862.5833,0,72.28,2.424,191,0.505,0.951,1.178547,0,54.29,65.4,34.34,36.89
"2017-04-08 20:50:00",282858,0.522,175.2,6.676,100,0,0,862.4885,0,72.62,2.424,191,0.504,0.967,0,0,54.29,65.28,34.34,36.87
"2017-04-08 21:00:00",282859,0.287,182.3,7.306,100,0.6799434,0,862.3516,0,72.57,2.425,190,0.512,0.974,0.3751673,0.254,54.29,65.34,34.34,36.88
"2017-04-08 21:10:00",282860,0.405,176.7,6.873,100,0,0,862.3495,0,72.74,2.42,186,0.515,0.982,0.04168531,0,54.29,65.28,34.34,36.87
"2017-04-08 21:20:00",282861,0.347,181.6,7.264,100,0,0,862.3264,0,72.41,2.426,182,0.52,0.983,0.3562226,0,54.29,65.22,34.34,36.85
"2017-04-08 21:30:00",282862,0.438,177.3,6.755,100,0,0,862.2927,0,72.19,2.428,169,0.547,0.977,0.06442627,0,54.29,65.22,34.34,36.85
"2017-04-08 21:40:00",282863,0.282,146.5,6.467,100,0,0,862.0125,0,72.34,2.427,168,0.558,0.976,0.1553855,0,54.24,65.22,34.33,36.85
"2017-04-08 21:50:00",282864,0.228,217.7,8.19,100,0.2319273,0,862.0146,0,72.14,2.421,170,0.574,0.98,1.932962,1.437,54.29,65.16,34.34,36.84
"2017-04-08 22:00:00",282865,0.203,153.4,7.268,100,0.003931035,0,862.0988,0,72.11,2.431,172,0.6,1.003,0.1516116,0.096,54.24,65.16,34.33,36.84
"2017-04-08 22:10:00",282866,0.172,187.2,7.196,100,0,0,861.9135,0,71.96,2.426,169,0.601,1.01,0.7088578,0,54.24,65.09,34.33,36.82
"2017-04-08 22:20:00",282867,0.07,191.6,8.19,100,0.6487098,0,861.8461,0,71.95,2.422,187,0.616,1.019,1.057626,0.734,54.24,65.03,34.33,36.81
"2017-04-08 22:30:00",282868,0.277,189.9,7.47,100,0.133674,0,861.8378,0,71.94,2.43,193,0.594,1.019,0.1213056,0.11,54.18,64.97,34.32,36.8
"2017-04-08 22:40:00",282869,0,0,7.384,100,1.061471,0,861.8441,0,71.9,2.425,190,0.584,1.01,0.1857379,0.077,54.24,64.97,34.33,36.8
"2017-04-08 22:50:00",282870,0.31,190.9,7.198,100,0.6211544,0,861.8419,0,71.93,2.429,190,0.589,1.007,0.09476414,0.039,54.18,64.91,34.32,36.78
"2017-04-08 23:00:00",282871,0.534,190.9,6.946,100,0.3774199,0,861.823,0,72.11,2.427,201,0.613,1.013,0,0,54.18,64.91,34.32,36.78
"2017-04-08 23:10:00",282872,0.202,210.4,7.646,100,1.317072,0,861.5955,0,71.97,2.431,195,0.624,1.019,0.3639141,0.177,54.18,64.85,34.32,36.77
"2017-04-08 23:20:00",282873,0.438,184.4,7.033,100,0.5425622,0,861.5807,0,71.86,2.43,193,0.622,1.021,0,0,54.18,64.85,34.32,36.77
"2017-04-08 23:30:00",282874,0.384,173.2,7.019,100,0.6251156,0,861.6229,0,71.82,2.43,192,0.606,1.017,0,0,54.12,64.85,34.3,36.77
"2017-04-08 23:40:00",282875,0.398,185.7,6.948,100,0.5189622,0,861.5976,0,71.89,2.429,187,0.617,1.016,0,0,54.12,64.36,34.3,36.66
"2017-04-08 23:50:00",282876,0.187,183.7,7.553,100,1.517591,0,861.5934,0,71.78,2.433,171,0.606,1.021,0.2615648,0.133,54.12,63.99,34.3,36.58
